Regional Weather Roundup
Issued by NWS

Home | Current Version | Previous Version | Graphics & Text | Print | Product List | Glossary On
Versions: 1 2 3 4 5 6 7 8 9 10 11 12 13 14 15 16 17 18 19 20 21 22 23 24 25 26 27 28 29 30 31 32 33 34 35 36 37 38 39 40 41 42 43 44 45 46 47 48 49 50
000
ASUS45 KBOU 290607
RWRCO

WEATHER ROUNDUP FOR COLORADO
NATIONAL WEATHER SERVICE DENVER/BOULDER CO
1200 AM MDT MON MAY 29 2017

NOTE: "FAIR" INDICATES FEW OR NO CLOUDS BELOW 12000 FEET WITH NO
SIGNIFICANT WEATHER AND/OR OBSTRUCTIONS TO VISIBILITY.

COZ001>005-013-030-031-290700-
...NORTHWEST COLORADO...

CITY           SKY/WX    TMP DP  RH WIND       PRES   REMARKS
CRAIG          FAIR      41  34  76 CALM      30.26F
HAYDEN         FAIR      45  30  57 E6        30.27F
MEEKER         FAIR      42  32  67 NE8       30.27S
RABBIT EARS PA FAIR      39  28  65 NW7       30.46S
STEAMBOAT SPGS FAIR      44  33  65 CALM      30.29F
WALDEN           N/A     41  30  65 E9        30.37F
$$

COZ006>008-011-290700-
...WEST CENTRAL VALLEYS...

CITY           SKY/WX    TMP DP  RH WIND       PRES   REMARKS
GRAND JUNCTION FAIR      63  26  24 CALM      30.14R
MONTROSE       FAIR      53  25  33 SE10      30.22S
EAGLE          FAIR      47  30  51 SE6       30.30S
RIFLE          FAIR      53  28  38 SE7       30.21S
DELTA          FAIR      57  25  28 E7        30.19R
NUCLA          FAIR      54  21  28 E10       30.25S
$$

COZ017>023-064>068-290700-
...SOUTHWEST COLORADO...

CITY           SKY/WX    TMP DP  RH WIND       PRES   REMARKS
DURANGO        FAIR      46  20  35 CALM      30.23R
CORTEZ         FAIR      44  29  55 NE7       30.21R
PAGOSA SPRINGS FAIR      42  13  30 CALM      30.30S
TELLURIDE      FAIR      43  19  39 E3        30.40S
WOLF CREEK PAS FAIR      36   9  32 CALM      30.56S
$$

COZ009-010-012-014-032>034-037-058>063-290700-
...CENTRAL COLORADO...

CITY           SKY/WX    TMP DP  RH WIND       PRES   REMARKS
ASPEN          FAIR      42  28  57 S6        30.32S
BUENA VISTA    FAIR      40  26  57 W5        30.36R
COPPER MTN     FAIR      37  23  56 E5        30.52S
BERTHOUD PASS  MOCLDY    28  19  69 S3        30.54F
COTTONWOOD PAS FAIR      45  21  39 W3        30.43S
GUNNISON       FAIR      42  24  49 N5        30.32S
KREMMLING      FAIR      45  37  76 SE3       30.34S
LEADVILLE      FAIR      33  19  56 CALM      30.41S
MONARCH PASS   FAIR      32  27  80 E16       30.61S WCI  21
SALIDA         FAIR      53  29  40 E7        30.40S
SUNLIGHT       FAIR      36  23  60 N3        30.50S
WILKERSON PASS FAIR      36  23  60 SE7       30.52F
$$

COZ069>075-290700-
...SAN LUIS VALLEY/SANGRE DE CRISTO MOUNTAINS...

CITY           SKY/WX    TMP DP  RH WIND       PRES   REMARKS
ALAMOSA        FAIR      48  31  51 E8        30.28S
DEL NORTE      FAIR      46  23  41 W12       30.31S
LA VETA PASS   MOCLDY    37  30  75 N9        30.54S
SAGUACHE       FAIR      52  21  30 N10       30.30F
$$

COZ035-036-038>040-290700-
...NORTHERN COLORADO FRONT RANGE...

CITY           SKY/WX    TMP DP  RH WIND       PRES   REMARKS
DENVER INTL AP MOCLDY    50  44  80 SW6       30.28R
DMNS CITY PARK   N/A     52  41  65 E8        30.28R
AURORA         MOCLDY    49  41  75 S5        30.29S
FRONT RANGE AP CLOUDY    52  45  76 S7        30.29R
ERIE MUNI ARPT CLOUDY    53  46  74 CALM      30.27R
BOULDER MUN AP CLOUDY    57  37  47 SW7       30.26S
CENTENNIAL     MOCLDY    51  41  68 CALM      30.29S
BROOMFIELD     FAIR      50  43  76 SW5       30.28S
FORT COLLINS   LGT RAIN  55  43  63 NE10G20   30.29R
LONGMONT       CLOUDY    55  46  73 E5        30.28R HAZE
$$

COZ041-046-047-076>085-087-088-290700-
...PIKES PEAK/PALMER DIVIDE AND SOUTHERN FOOTHILLS...

CITY           SKY/WX    TMP DP  RH WIND       PRES   REMARKS
COLO. SPRINGS  FAIR      50  38  63 NE8       30.29R
A. F. ACADEMY  MOCLDY    45  36  70 N10       30.30R
SCHRIEVER AFB  FAIR      51  36  56 N14       30.30R
CHEYENNE MTN   FAIR      52  30  41 NW7       30.26R
ELLICOTT       FAIR     N/A N/A N/A NE12      30.28R
FALCON         FAIR      46  37  72 N7        30.34R
FORT CARSON    MOCLDY    50  36  58 NW8       30.26S
LIMON          MOCLDY    49  44  83 NW5       30.26R
MONUMENT HILL  FAIR      43  37  81 SE5       30.34F
CANON CITY     NOT AVBL
WALSENBURG     FAIR      48  43  81 CALM      30.27S
TRINIDAD       FAIR      48  36  63 W9        30.26R
$$

COZ042>045-048>051-090-091-290700-
...NORTHEAST COLORADO...

CITY           SKY/WX    TMP DP  RH WIND       PRES   REMARKS
GREELEY ARPT   LGT RAIN  55  47  74 NE10      30.27R
AKRON          MOCLDY    53  42  66 W9        30.21R
BURLINGTON     FAIR      53  45  74 NE3       30.18F
WRAY           FAIR      52  46  82 N7        30.17S
YUMA           FAIR      46  36  66 W3        30.18S
STERLING       NOT AVBL
HOLYOKE        NOT AVBL
FORT MORGAN    FAIR      54  41  62 NW18G26   30.24S
$$

COZ086-089-092>099-290700-
...SOUTHEAST COLORADO...

CITY           SKY/WX    TMP DP  RH WIND       PRES   REMARKS
PUEBLO         FAIR      52  41  66 N7        30.20S
LA JUNTA       FAIR      58  43  57 SW6       30.18S
LAMAR          FAIR      48  44  86 S8        30.14S
SPRINGFIELD      N/A     49  41  74 W5        30.19S
$$



USA.gov is the U.S. government's official web portal to all federal, state and local government web resources and services.